Location: Muenchen
(48.1800°N, 11.5800°E)
Time: 19:35:23
(UTC+02:00)

Sich 1 Rocket - Visible Passes

Search period start: 31 July 2014 00:00
Search period end: 10 August 2014 00:00
Orbit: 617 x 655 km, 82.5° (Epoch: 31 July)

Date Brightness Start Highest point End Pass type
(mag) Time Alt. Az. Time Alt. Az. Time Alt. Az.
31 Jul 6.4 04:15:45 10° NNE 04:18:59 19° ENE 04:22:13 10° ESE visible
01 Aug 5.3 04:37:54 10° N 04:42:00 36° ENE 04:46:06 10° SE visible
02 Aug 3.9 05:00:26 10° N 05:04:52 71° E 05:09:19 10° SSE visible
03 Aug 6.4 03:46:03 10° NNE 03:48:59 17° ENE 03:51:55 10° ESE visible
04 Aug 5.5 04:08:04 10° N 04:12:02 31° ENE 04:16:01 10° SE visible
05 Aug 4.2 04:30:32 10° N 04:34:57 60° ENE 04:39:22 10° SSE visible
06 Aug 6.4 03:16:24 10° NNE 03:18:58 15° ENE 03:21:32 10° E visible
06 Aug 3.6 04:53:16 10° NNW 04:57:42 68° W 05:02:09 10° S visible
07 Aug 5.7 03:38:15 10° NNE 03:42:04 27° ENE 03:45:53 10° SE visible
07 Aug 4.3 05:16:19 10° NNW 05:20:20 34° W 05:24:23 10° SSW visible
08 Aug 4.4 04:00:38 10° N 04:05:00 51° ENE 04:09:23 10° SSE visible
09 Aug 6.5 02:46:51 10° NE 02:48:57 13° ENE 02:51:03 10° E visible
09 Aug 3.5 04:23:19 10° NNW 04:27:48 80° W 04:32:18 10° S visible
